Location: Newark
(43.4306°N, 0.3089°E)
Time: 19:22:41
(UTC+00:00)

S-56A Canister/Altair - Pass Details

Date: 23 August 2019
Orbit: 633 x 2499 km, 38.9° (Epoch: 17 October)

Event Time Altitude Azimuth Distance (km) Brightness Sun altitude
Rises 02:13:48 0° 269° (W) 3,057 - -27.3°
Reaches altitude 10° 02:16:26 10° 253° (WSW) 2,271 - -27.0°
Maximum altitude 02:20:19 21° 204° (SSW) 1,859 - -26.6°
Drops below altitude 10° 02:25:10 10° 158° (SSE) 2,909 - -26.0°
Exits shadow 02:26:49 - 151° (SSE) 3,434 10.7 -25.8°
Sets 02:29:08 0° 144° (SE) 4,214 11.2 -25.5°
